[[{"header":{"parameterUnit":"m.s-1","parameterCategory":1,"la1":30.2991,"la2":30.254,"lo1":-89.0895,"lo2":-89.0444,"dy":0.0017,"dx":0.0017,"nx":28,"ny":28,"refTime":"2025-02-23T03:00:00:Z","depth":0,"parameterNumber":2,"parameterNumberName":"U-component_of_WINDS"},"data":[0,0,0,0,0,0,0,0,0,0,0,0,0,0,0,0,0,0,0,0,0,0,0,0,0,0,0,0,0,0,0,0,0,0,0,0,0,0,0,0,0,0,0,0,0,0,0,0,0,0,0,0,0,0,0,0,0,0,-3.6394,-3.6396,0,-3.6498,-3.6499,-3.6501,-3.6438,-3.6435,-3.6432,-3.6429,-3.6538,-3.6543,-3.6549,0,0,0,0,0,0,0,0,0,0,0,0,0,-3.6143,-3.6148,-3.6394,-3.6396,-3.6397,-3.6498,-3.65,-3.6501,-3.6439,-3.6435,-3.6431,-3.6428,-3.6536,-3.6543,-3.6549,0,0,0,0,0,0,0,0,0,0,0,0,0,-3.625,-3.615,-3.6394,-3.6378,-3.6378,-3.6498,-3.65,-3.6501,-3.6439,-3.6435,-3.643,-3.6426,-3.6534,-3.6542,-3.655,-3.6693,0,0,-3.6576,-3.658,0,0,0,0,0,0,0,0,-3.6244,-3.626,-3.6379,-3.6379,-3.6379,-3.6451,-3.6451,-3.6566,-3.6441,-3.6416,-3.6429,-3.6424,-3.6512,-3.6522,-3.6552,-3.6698,-3.6702,-3.6577,-3.6582,-3.6586,-3.6588,0,0,0,0,0,0,0,-3.6237,-3.6255,-3.6435,-3.6381,-3.6381,-3.6366,-3.6376,-3.6472,-3.6488,-3.6418,-3.6414,-3.6427,-3.6512,-3.6544,-3.6554,-3.6704,-3.6577,-3.6584,-3.659,-3.6593,-3.6972,-3.6977,0,0,0,0,0,0,-3.6231,-3.6249,-3.6432,-3.6439,-3.6299,-3.6374,-3.6386,-3.6432,-3.6487,-3.6491,-3.643,-3.6423,-3.6531,-3.6544,-3.6558,-3.6729,-3.6586,-3.6594,-3.6599,-3.6967,-3.6973,-3.6979,0,0,0,0,0,0,-3.6225,-3.6247,-3.6428,-3.6343,-3.6365,-3.6383,-3.6436,-3.6437,-3.6469,-3.6496,-3.6499,-3.646,-3.6528,-3.6546,-3.666,-3.6732,-3.6598,-3.6605,-3.6962,-3.6969,-3.6976,-3.7072,0,0,0,0,0,0,-3.6218,-3.6246,-3.63,-3.6344,-3.6369,-3.6528,-3.6441,-3.6442,-3.6483,-3.6475,-3.6525,-3.6529,-3.6526,-3.6647,-3.6668,-3.6741,-3.6612,-3.6955,-3.6965,-3.6974,-3.7062,-3.7082,-3.7098,0,0,0,0,0,-3.621,-3.6323,-3.6303,-3.6326,-3.6437,-3.6533,-3.6547,-3.6541,-3.6489,-3.6544,-3.6562,-3.6528,-3.672,-3.6659,-3.6682,-3.6759,-3.6951,-3.6962,-3.6973,-3.7054,-3.7078,-3.7098,0,0,0,0,0,0,-3.6288,-3.6329,-3.6307,-3.6438,-3.6482,-3.6522,-3.6591,-3.6566,-3.6626,-3.6616,-3.6606,-3.6617,-3.6737,-3.6759,-3.6691,-3.69,-3.6827,-3.6844,-3.6881,-3.6904,-3.6921,-3.6914,-3.6619,0,0,0,0,0,-3.632,-3.6394,-3.6426,-3.6538,-3.6562,-3.6573,-3.6614,-3.6605,-3.665,-3.6669,-3.6695,-3.6741,-3.6811,-3.6858,-3.6925,-3.7064,-3.7075,-3.7128,-3.7146,-3.7161,-3.7176,-3.7251,-3.7276,-3.7016,-3.7016,-3.7015,0,0,-3.6389,-3.642,-3.6467,-3.6555,-3.6588,-3.6665,-3.6589,-3.6673,-3.673,-3.6682,-3.6792,-3.6812,-3.6863,-3.699,-3.7048,-3.7012,-3.7249,-3.7175,-3.7186,-3.7193,-3.7266,-3.729,-3.7312,-3.7023,-3.7022,-3.7021,0,0,-3.6552,-3.6583,-3.6681,-3.6715,-3.6766,-3.6772,-3.6795,-3.6839,-3.685,-3.696,-3.6925,-3.6993,-3.7114,-3.7152,-3.7187,-3.7364,-3.7335,-3.7386,-3.748,-3.7554,-3.7575,-3.7593,-3.7657,-3.768,-3.74,-3.74,-3.74,0,-3.6631,-3.6745,-3.6734,-3.6822,-3.6861,-3.682,-3.6919,-3.6953,-3.7023,-3.7052,-3.7011,-3.7163,-3.7194,-3.733,-3.7373,-3.7402,-3.7429,-3.7381,-3.7572,-3.7591,-3.7607,-3.7669,-3.7693,-3.7406,-3.7406,-3.7405,-3.7404,0,-3.684,-3.6919,-3.6992,-3.706,-3.7108,-3.7201,-3.7204,-3.7254,-3.7241,-3.7252,-3.7364,-3.7399,-3.7472,-3.7503,-3.7491,-3.7638,-3.7614,-3.7573,-3.7501,-3.7638,-3.7696,-3.7719,-3.7415,-3.7413,-3.7411,-3.7409,0,0,-3.7058,-3.7118,-3.7145,-3.7176,-3.7228,-3.729,-3.738,-3.7451,-3.7494,-3.7543,-3.762,-3.7723,-3.7685,-3.7725,-3.7717,-3.7782,-3.7921,-3.7732,-3.7733,-3.7768,-3.8086,-3.8118,-3.8145,-3.7901,-3.7905,-3.7909,-3.8082,0,-3.7226,-3.7385,-3.7377,-3.7525,-3.7599,-3.756,-3.7639,-3.768,-3.7692,-3.7756,-3.7769,-3.7844,-3.7787,-3.7811,-3.7873,-3.7891,-3.7985,-3.7878,-3.7973,-3.7977,-3.7964,-3.8175,-3.8209,-3.8371,-3.8104,-3.8108,-3.811,0,-3.7444,-3.75,-3.7656,-3.7697,-3.7728,-3.7799,-3.7863,-3.7925,-3.7971,-3.7975,-3.8019,-3.7999,-3.8092,-3.8015,-3.8142,-3.807,-3.8108,-3.8122,-3.8128,-3.8139,-3.8053,-3.8192,-3.8422,-3.8447,-3.8145,-3.8143,-3.814,0,-3.759,-3.7704,-3.7812,-3.7839,-3.7889,-3.7941,-3.7964,-3.8005,-3.8048,-3.8104,-3.8131,-3.8198,-3.8234,-3.8286,-3.8285,-3.8229,-3.8415,-3.8338,-3.8422,-3.8422,-3.8464,-3.8462,-3.8706,-3.8486,-3.8486,-3.8485,-3.8485,0,-3.7779,-3.7877,-3.7878,-3.7945,-3.8053,-3.8042,-3.815,-3.8168,-3.8204,-3.8274,-3.8243,-3.831,-3.8303,-3.8371,-3.837,-3.8476,-3.8493,-3.8499,-3.8499,-3.8503,-3.8503,-3.853,-3.8519,-3.8492,-3.849,-3.8489,-3.8488,0,-3.7961,-3.7966,-3.8081,-3.8119,-3.8131,-3.8209,-3.8241,-3.8305,-3.8313,-3.8402,-3.8422,-3.8436,-3.8513,-3.8517,-3.8606,-3.8605,-3.8735,-3.8721,-3.872,-3.8718,-3.8802,-3.8795,-3.9073,-3.911,-3.8865,-3.8867,-3.8869,0,-3.8083,-3.8157,-3.8202,-3.8247,-3.8273,-3.8345,-3.8388,-3.838,-3.8427,-3.8483,-3.8541,-3.8614,-3.8673,-3.8799,-3.8817,-3.8885,-3.8873,-3.8966,-3.8883,-3.8886,-3.8877,-3.8873,-3.8881,-3.8983,-3.8985,-3.8988,-3.8989,0,-3.83,-3.8298,-3.8361,-3.8426,-3.8479,-3.8529,-3.8576,-3.8614,-3.8612,-3.8666,-3.8744,-3.879,-3.888,-3.8954,-3.902,-3.9044,-3.9018,-3.9015,-3.9038,-3.9045,-3.9042,-3.9046,-3.8766,-3.9009,-3.9007,-3.9006,-3.9005,-3.9004,-3.8456,-3.852,-3.8562,-3.8634,-3.8668,-3.8712,-3.8774,-3.879,-3.8854,-3.8927,-3.8918,-3.9006,-3.9048,-3.9134,-3.9163,-3.9232,-3.92,-3.9233,-3.9242,-3.9251,-3.9261,-3.9029,-3.9243,-3.9243,-3.9242,-3.9242,-3.9241,0,-3.8673,-3.8697,-3.8763,-3.8829,-3.8886,-3.8853,-3.8903,-3.8953,-3.903,-3.9072,-3.913,-3.922,-3.9292,-3.9315,-3.9385,-3.9435,-3.9424,-3.9454,-3.9451,-3.9457,-3.9285,-3.9258,-3.9461,-3.9461,-3.9461,-3.9461,-3.9461,-3.9461,-3.8792,-3.8899,-3.8902,-3.9025,-3.9048,-3.9133,-3.9165,-3.9206,-3.9239,-3.9341,-3.94,-3.9414,-3.9449,-3.952,-3.9584,-3.9589,-3.9617,-3.9652,-3.9652,-3.9491,-3.9469,-3.9448,-3.9423,-3.9658,-3.9658,-3.9819,-3.9821,-3.9822]},{"header":{"parameterUnit":"m.s-1","parameterCategory":1,"la1":30.2991,"la2":30.254,"lo1":-89.0895,"lo2":-89.0444,"dy":0.0017,"dx":0.0017,"nx":28,"ny":28,"refTime":"2025-02-23T03:00:00:Z","depth":0,"parameterNumber":3,"parameterNumberName":"V-component_of_WINDS"},"data":[0,0,0,0,0,0,0,0,0,0,0,0,0,0,0,0,0,0,0,0,0,0,0,0,0,0,0,0,0,0,0,0,0,0,0,0,0,0,0,0,0,0,0,0,0,0,0,0,0,0,0,0,0,0,0,0,0,0,-5.6674,-5.6674,0,-5.6698,-5.6698,-5.6698,-5.6609,-5.6607,-5.6604,-5.6602,-5.6624,-5.6627,-5.663,0,0,0,0,0,0,0,0,0,0,0,0,0,-5.6548,-5.6551,-5.6674,-5.6674,-5.6674,-5.6698,-5.6698,-5.6698,-5.661,-5.6607,-5.6603,-5.66,-5.6623,-5.6627,-5.6631,0,0,0,0,0,0,0,0,0,0,0,0,0,-5.659,-5.6552,-5.6674,-5.6633,-5.663,-5.6698,-5.6698,-5.6698,-5.661,-5.6607,-5.6603,-5.6599,-5.6622,-5.6627,-5.6631,-5.6739,0,0,-5.6645,-5.6647,0,0,0,0,0,0,0,0,-5.6588,-5.6595,-5.6639,-5.6636,-5.6632,-5.6646,-5.6662,-5.6712,-5.6611,-5.6618,-5.6601,-5.6597,-5.6635,-5.6638,-5.6651,-5.674,-5.6741,-5.6646,-5.6649,-5.665,-5.6652,0,0,0,0,0,0,0,-5.6585,-5.6594,-5.6683,-5.6639,-5.6635,-5.6612,-5.6614,-5.6671,-5.6648,-5.6617,-5.661,-5.6615,-5.6632,-5.6647,-5.6651,-5.6741,-5.6646,-5.665,-5.6653,-5.6654,-5.6918,-5.6922,0,0,0,0,0,0,-5.6588,-5.6592,-5.6682,-5.6684,-5.66,-5.6618,-5.662,-5.6646,-5.6647,-5.6644,-5.6618,-5.661,-5.6641,-5.6646,-5.6652,-5.6777,-5.665,-5.6655,-5.6657,-5.6914,-5.6919,-5.6923,0,0,0,0,0,0,-5.6586,-5.6597,-5.6681,-5.6636,-5.6645,-5.6624,-5.6654,-5.6648,-5.6663,-5.6648,-5.6643,-5.6638,-5.6638,-5.6645,-5.6718,-5.6776,-5.6657,-5.6661,-5.6909,-5.6915,-5.6921,-5.7029,0,0,0,0,0,0,-5.6582,-5.6597,-5.6638,-5.6638,-5.6648,-5.6748,-5.6658,-5.6652,-5.6672,-5.6662,-5.6665,-5.6662,-5.6636,-5.6711,-5.6722,-5.678,-5.6665,-5.6903,-5.6912,-5.6919,-5.702,-5.7038,-5.7053,0,0,0,0,0,-5.6578,-5.6668,-5.6641,-5.6652,-5.6699,-5.6752,-5.6757,-5.6726,-5.6677,-5.6718,-5.6708,-5.6662,-5.6768,-5.6719,-5.6731,-5.6792,-5.6899,-5.6909,-5.6918,-5.7012,-5.7034,-5.7053,0,0,0,0,0,0,-5.6675,-5.6667,-5.6637,-5.6729,-5.6742,-5.6737,-5.6787,-5.675,-5.6777,-5.6767,-5.6726,-5.6727,-5.6807,-5.6806,-5.6752,-5.6895,-5.6825,-5.6837,-5.6892,-5.6913,-5.693,-5.6928,-5.6668,0,0,0,0,0,-5.6707,-5.6751,-5.6741,-5.6823,-5.6831,-5.6809,-5.683,-5.6805,-5.6816,-5.6821,-5.6816,-5.6828,-5.6864,-5.6889,-5.6921,-5.7019,-5.7018,-5.7066,-5.7083,-5.7097,-5.7108,-5.7159,-5.718,-5.6955,-5.6955,-5.6954,0,0,-5.6774,-5.6775,-5.6805,-5.6843,-5.6849,-5.6895,-5.6814,-5.6865,-5.6898,-5.6828,-5.6896,-5.6894,-5.6904,-5.699,-5.7027,-5.6992,-5.717,-5.7109,-5.7121,-5.7124,-5.7171,-5.7192,-5.7211,-5.6961,-5.696,-5.6959,0,0,-5.6918,-5.6924,-5.6992,-5.7001,-5.7012,-5.6997,-5.7013,-5.7013,-5.7009,-5.7077,-5.7025,-5.7063,-5.7126,-5.7135,-5.7149,-5.7296,-5.7254,-5.7307,-5.7395,-5.7445,-5.7462,-5.7478,-5.7529,-5.7548,-5.7318,-5.7319,-5.7319,0,-5.7,-5.7067,-5.7032,-5.7087,-5.7104,-5.7044,-5.7112,-5.7121,-5.7143,-5.7156,-5.7116,-5.7193,-5.7196,-5.7282,-5.7318,-5.7331,-5.7348,-5.7307,-5.7463,-5.7478,-5.7492,-5.754,-5.756,-5.7325,-5.7324,-5.7324,-5.7323,0,-5.7165,-5.7213,-5.7266,-5.7289,-5.7312,-5.7374,-5.7347,-5.7375,-5.7347,-5.7335,-5.7404,-5.7405,-5.7436,-5.7455,-5.7429,-5.7537,-5.7515,-5.747,-5.7399,-5.752,-5.7565,-5.7584,-5.7334,-5.7332,-5.733,-5.7328,0,0,-5.7372,-5.7374,-5.7394,-5.7403,-5.7411,-5.7446,-5.7504,-5.7535,-5.7559,-5.7575,-5.7622,-5.7677,-5.7634,-5.7649,-5.7623,-5.7667,-5.7782,-5.7616,-5.7616,-5.7646,-5.7901,-5.7934,-5.7956,-5.7755,-5.7758,-5.7761,-5.7899,0,-5.7513,-5.7613,-5.7583,-5.7683,-5.7725,-5.7667,-5.7717,-5.7727,-5.7717,-5.7751,-5.774,-5.7779,-5.7721,-5.7729,-5.777,-5.776,-5.7832,-5.7749,-5.7797,-5.7799,-5.7795,-5.798,-5.8015,-5.8146,-5.7917,-5.792,-5.7922,0,-5.7691,-5.7715,-5.7819,-5.7819,-5.7835,-5.7881,-5.7906,-5.794,-5.7949,-5.7938,-5.7955,-5.7919,-5.7975,-5.7904,-5.798,-5.7924,-5.7941,-5.7939,-5.7943,-5.7946,-5.7867,-5.7987,-5.8187,-5.8207,-5.7949,-5.7947,-5.7945,0,-5.783,-5.7888,-5.7957,-5.7967,-5.7969,-5.8002,-5.8004,-5.8009,-5.8029,-5.8051,-5.8063,-5.8091,-5.8106,-5.8128,-5.8101,-5.8052,-5.818,-5.8107,-5.8172,-5.8173,-5.8201,-5.8199,-5.8407,-5.8214,-5.8214,-5.8213,-5.8213,0,-5.799,-5.8056,-5.802,-5.8063,-5.8134,-5.8098,-5.817,-5.8165,-5.817,-5.821,-5.8162,-5.8201,-5.8162,-5.8197,-5.8176,-5.8241,-5.8248,-5.8241,-5.8234,-5.8245,-5.8246,-5.8255,-5.8245,-5.8219,-5.8217,-5.8216,-5.8215,0,-5.8158,-5.8136,-5.8208,-5.8203,-5.8203,-5.8256,-5.8252,-5.829,-5.8277,-5.8328,-5.8338,-5.8317,-5.8355,-5.833,-5.8368,-5.8354,-5.8439,-5.842,-5.8436,-5.843,-5.8496,-5.849,-5.8716,-5.8744,-5.8535,-5.8537,-5.8538,0,-5.8261,-5.831,-5.8311,-5.8334,-5.8339,-5.8378,-5.8398,-5.8364,-5.8387,-5.84,-5.8437,-5.8472,-5.8497,-5.8561,-5.8548,-5.8577,-5.8558,-5.8635,-5.8562,-5.8571,-5.8558,-5.8555,-5.8559,-5.865,-5.8652,-5.8654,-5.8656,0,-5.8447,-5.8433,-5.8464,-5.8491,-5.8517,-5.8536,-5.8552,-5.8574,-5.8539,-5.8567,-5.8606,-5.8626,-5.8665,-5.8699,-5.8723,-5.8723,-5.8684,-5.8679,-5.8695,-5.8706,-5.8713,-5.8709,-5.8475,-5.8674,-5.8672,-5.8671,-5.867,-5.8669,-5.8584,-5.8625,-5.8631,-5.8667,-5.8675,-5.8691,-5.8726,-5.8717,-5.8749,-5.8778,-5.8756,-5.8802,-5.8808,-5.8836,-5.8842,-5.8877,-5.8845,-5.8869,-5.8875,-5.8881,-5.889,-5.8708,-5.8881,-5.888,-5.888,-5.8879,-5.8879,0,-5.8766,-5.8767,-5.8801,-5.8824,-5.8852,-5.8812,-5.8827,-5.8853,-5.8894,-5.8904,-5.8929,-5.8973,-5.9006,-5.8996,-5.9025,-5.9054,-5.9037,-5.9063,-5.906,-5.906,-5.8917,-5.89,-5.9076,-5.9076,-5.9076,-5.9076,-5.9076,-5.9076,-5.8864,-5.893,-5.8918,-5.8987,-5.8987,-5.9032,-5.9043,-5.9057,-5.9064,-5.9115,-5.9142,-5.9136,-5.9137,-5.9165,-5.9193,-5.9189,-5.9202,-5.9234,-5.9224,-5.909,-5.9071,-5.9052,-5.9035,-5.9238,-5.9238,-5.9364,-5.9365,-5.9366]}]]